Regional Weather Roundup
Issued by NWS Wakefield, VA

Home | Current Version | Previous Version | Graphics & Text | Print | Product List | Glossary On
Versions: 1 2 3 4 5 6 7 8 9 10 11 12 13 14 15 16 17 18 19 20 21 22 23 24 25 26 27 28 29 30 31 32 33 34 35 36 37 38 39 40 41 42 43 44 45 46 47 48
000
ASUS41 KAKQ 031414
RWRAKQ

REGIONAL WEATHER ROUNDUP
NATIONAL WEATHER SERVICE WAKEFIELD VA
1000 AM EDT THU SEP 03 2015

Note: "fair" indicates few or no clouds below 12,000 feet with no
significant weather and/or obstructions to visibility. * = Denotes
station may not report precipitation (e.g., rain,snow,etc.),
thunder or fog.

VAZ042-051-052>054-056-031500-
NORTHERN VIRGINIA

CITY           SKY/WX    TMP DP  RH WIND       PRES   REMARKS
WASH NATIONAL  SUNNY     83  68  60 N9        29.94S
DULLES         SUNNY     82  67  60 NW7       29.95S
FORT BELVOIR   SUNNY     83  68  61 NW9       29.93S
QUANTICO       SUNNY     81  68  64 VRB3      29.94S
FREDERICKSBRG* SUNNY     83  69  62 N5        29.93F
STAFFORD*      SUNNY     82  67  60 N8        29.98S
WARRENTON      SUNNY     83  72  68 CALM      29.94F
CULPEPER*      SUNNY     80  70  71 NW5       29.96S
MANASSAS*      SUNNY     81  72  74 CALM      29.94F
LEESBURG*      SUNNY     82  72  69 NW14      29.96S
WINCHESTER     SUNNY     79  68  69 CALM      29.98F
FRONT ROYAL*   FAIR      77  68  73 CALM      29.98S
LURAY*         FAIR      72  68  88 CALM      30.01S
$$

VAZ048-049-060>072-079>083-031500-
CENTRAL AND SOUTH CENTRAL VIRGINIA

CITY           SKY/WX    TMP DP  RH WIND       PRES   REMARKS
RICHMOND       MOSUNNY   82  69  64 N5        29.93F
CHESTERFIELD*  FAIR      81  63  54 CALM      29.95F
PETERSBURG*    SUNNY     80  73  79 CALM      29.95S
HANOVER        SUNNY     82  68  62 VRB3      29.95F
TAPPAHANNOCK*  SUNNY     81  64  57 NW3       29.94S
QUINTON*       FAIR      79  71  75 N3        29.93S
CHARLOTTSVILLE SUNNY     80  68  66 W3        29.97S
GORDONSVILLE*  FAIR      83  68  61 W3        29.95S
ORANGE*        SUNNY     82  68  61 N5        29.97S
LOUISA*        SUNNY     84  66  54 NW6       29.95S
BUMPASS*       FAIR      79  71  76 NW5       29.95S
FARMVILLE*     SUNNY     81  68  64 N5        29.95S
CREWE*         FAIR     N/A N/A N/A NW3       29.96R
FORT PICKETT*  FAIR      78  69  76 CALM      29.96S
CHASE CITY*    FAIR      77  72  84 CALM      29.97S
CLARKSVILLE*   FAIR      73  68  83 NW3       29.96F
SOUTH HILL*    SUNNY     76  71  84 CALM      30.02R
LAWRENCEVILLE* FAIR      75  70  83 CALM      29.95S
EMPORIA*       SUNNY     73  70  88 W3        29.96S
$$

VAZ088>098-031500-
SOUTHEAST VIRGINIA

CITY           SKY/WX    TMP DP  RH WIND       PRES   REMARKS
NORFOLK        SUNNY     81  67  62 NW6       29.92S
VIRGINIA BEACH MOSUNNY   85  68  56 NW8       29.91S
NORFOLK NAVAL  MOSUNNY   81  68  64 NW7       29.93F
WEST POINT*    SUNNY     82  68  62 NW3       29.94S
SALUDA*        FAIR      76  70  79 NW6       29.92S
NEWPORT NEWS   SUNNY     83  69  62 N6        29.92F
LANGLEY AFB    SUNNY     81  69  66 NW8       29.91F
FORT EUSTIS    SUNNY     78  78 100 NW6       29.91S
WILLIAMSBURG*  SUNNY     81  72  74 NW3       29.94S
HR EXEC AP*      N/A     79  72  78 NW5       29.94F
FRANKLIN*      SUNNY     77  69  76 N3        29.94S
WAKEFIELD      SUNNY     81  67  62 CALM      29.93F
$$

VAZ020-022-025-037-045-031500-
WEST CENTRAL AND SOUTHWEST VIRGINIA

CITY           SKY/WX    TMP DP  RH WIND       PRES   REMARKS
STAUNTON*      SUNNY     77  65  67 CALM      30.05S
WAYNESBORO*    FAIR      76  66  69 CALM      30.04S
HOT SPRINGS VA SUNNY     69  63  80 NW9       30.15S
LYNCHBURG      SUNNY     80  65  59 N9        30.01R
DANVILLE       SUNNY     81  67  62 N8        29.98S
SOUTH BOSTON*  FAIR      75  70  85 N3        29.97S
MARTINSVILLE   PTSUNNY   80  67  63 N7        30.03S
ROANOKE        MOSUNNY   79  66  64 NE3       30.05R
BLACKSBURG     SUNNY     74  68  82 CALM      30.12S
DUBLIN*        CLOUDY    75  68  78 NW6       30.10S
MARION*        SUNNY     75  66  74 W6        30.15S
HILLSVILLE*    MOSUNNY   72  66  80 NW12      30.10S
RICHLANDS*     FAIR      72  33  23 CALM      30.14S
WISE*          SUNNY     75  61  60 NW3       30.16S
ABINGDON*      SUNNY     75  66  74 SW3       30.11S
$$

MDZ021>025-VAZ099-100-031500-
SOUTHERN MARYLAND AND THE DELMARVA PENINSULA

CITY           SKY/WX    TMP DP  RH WIND       PRES   REMARKS
PATUXENT RIVER SUNNY     80  69  69 NW7       29.92R
BAY BRIDGE APT   N/A     79  68  69 NW5       29.92S
LEONARDTOWN    NOT AVBL
DOVER          SUNNY     82  70  66 N6        29.90R
GEORGETOWN     SUNNY     84  68  58 VRB3      29.91S
EASTON         SUNNY     82  72  69 E3        29.95S
CAMBRIDGE      SUNNY     82  68  61 N3        29.90F
SALISBURY      SUNNY     81  71  71 NW5       29.90F
OCEAN CITY     SUNNY     83  70  64 N9        29.90S
WALLOPS ISLAND SUNNY     82  73  74 NW8       29.91S
ACCOMACK*      SUNNY    N/A N/A N/A NW8       29.91R
$$

NCZ012>017-030>032-031500-
NORTH CENTRAL AND EASTERN NORTH CAROLINA

CITY           SKY/WX    TMP DP  RH WIND       PRES   REMARKS
ROANOKE RAPIDS FAIR      73  70  88 CALM      29.95S
RALEIGH        PTSUNNY   78  68  71 CALM      29.98R
ELIZABETH CITY SUNNY     76  69  79 W6        29.94R
AHOSKIE*         N/A    N/A N/A N/A MISG        N/A
EDENTON*       CLOUDY    71  68  90 NW5       29.95R
CURRITUCK*     SUNNY     77  68  73 NW3       29.94S
KILL DEVIL HLS SUNNY     81  70  69 W8        29.93R
MANTEO         SUNNY     78  71  80 NW6       29.94R
CAPE HATTERAS  SUNNY     80  72  76 VRB5      29.94R
TARBORO*       CLOUDY    73  70  89 NW3       29.97R
GOLDSBORO      MOSUNNY   75  71  89 W7        29.95S
WASHINGTON     CLOUDY    70  69  96 NW3       29.95S FOG
GREENVILLE     CLOUDY    72  70  94 CALM      29.97S FOG
NEW BERN       SUNNY     78  70  76 NW3       29.96R
WILMINGTON     PTSUNNY   82  72  71 VRB5      29.94R
$$

VAZ048-031500-
ELSEWHERE

CITY           SKY/WX    TMP DP  RH WIND       PRES   REMARKS
HARRISBURG PA  SUNNY     80  68  66 W7        29.93S
BALTIMORE      MOSUNNY   82  68  62 NW3       29.93R
ANNAPOLIS      SUNNY     81  71  71 NW3       29.92R
ANDREWS AFB    SUNNY     84  67  57 NW8       29.93S
PHILADELPHIA   PTSUNNY   85  64  49 NW9       29.91S
HENDERSON NC   MOSUNNY   76  66  70 N3        29.98R
GREENSBORO     PTSUNNY   82  65  56 VRB3      30.00S
ROCKY MOUNT    SUNNY     76  70  82 NW3       29.96S HAZE
$$

VAZ100-031500-
MARINE

STATION/POSITION TIME  TEMP    WIND        PRES    WAVE   SWELL
                       AIR SEA DIR/SP/G            HT/PER HT/PER
                 (UTC) (F)     (DEG/KT/KT) (MB)    (FT/S) (FT/S)
BRANDYWINE LGT   1300   76 76  340/  5/  6 1012.7
CAPE MAY NJ      1300   80 79  320/  5/  7 1012.1
LEWES DE         1300   76 76  320/  7/  8 1012.4
15NM E FENWICK I 1350   76 79  320/ 10/ 12 1012.3R   1/13   2/13
OCEAN-CITY-INLET 1300   78 78  350/  7/  7 1011.5
GOOSES REEF MD   1400   79 80  350/  6/  8 1014.1S
COVE POINT MD    1300   76     350/  7/  8 1013.7F
SOLOMONS ISLAND  1300      81                N/A
BISHOPS HEAD MD  1300   78 80  320/  4/  4 1012.0
PINEY POINT MD   1305          330/ 11/ 12   N/A
POTOMAC MD       1400   76 80  300/  8/ 10 1012.0S   1
CAMBRIDGE MD     1300   77 81  350/  5/  5 1012.0
LEWISETTA VA     1300   74 80  270/  8/  9 1013.0R
RAPPAHANNOCK LGT 1300          290/  9/ 10 1013.5S
STINGRAY PT      1400   76 80  300/ 10/ 12 1013.5F   1
YORK RVR RNG VA  1300   76     310/  9/ 10 1012.7
JAMESTOWN VA     1400   75 81  290/  6/  8   N/A
DOMINION TERM VA 1300   75     320/ 10/ 11 1013.1F
KIPTOPEKE VA     1300      79  330/  8/ 10   N/A
CHES BAY BRIDGE  1300   76 79  250/ 10/ 11 1012.8
CAPE HENRY VA    1300   76     280/ 10/ 12   N/A
CHESAPEAKE LGHT  1300   79     300/ 12/ 13 1013.7F
WILLOUBY STN VA  1300   76     320/  6/  7 1014.1F
CAPE HENRY BUOY  1328      79                N/A     2/ 9
1ST LANDING BUOY 1400      79              1012.9F   1/ 3
CAPE CHARLES BUO 1326      77                N/A     2/ 8   2/ 8
OFFSHORE WE BUOY 1311      79                N/A     2/ 3   2/ 8
64NM E OF VA BCH 1350   78 78  310/ 10/ 12 1012.5R   2/13   2/13
DUCK PIER NC     1300   75 80  290/  7/  9 1012.5R
44100 DUCK FRF   1324      79                N/A     1/13
44056 DUCK FRF   1311      80                N/A     2/13   2/13
OREGON INLET NC  1300   77 82  250/  7/  8 1013.3
HATTERAS NC      1300   77 82  360/  7/  9 1013.3
DIAMOND SHLS NC  1350   80 85  350/  6/  8 1013.9R   2/13   2/13
CAPE LOOKOUT NC  1400   78      50/  5/  6 1013.8R
$$


USA.gov is the U.S. government's official web portal to all federal, state and local government web resources and services.